Regional Weather Roundup
Issued by NWS

Home | Current Version | Previous Version | Graphics & Text | Print | Product List | Glossary On
Versions: 1 2 3 4 5 6 7 8 9 10 11 12 13 14 15 16 17 18 19 20 21 22 23 24 25 26 27 28 29 30 31 32 33 34 35 36 37 38 39 40 41 42 43 44 45 46 47 48 49 50
000
ASUS43 KLSX 231710
RWRMO

WEATHER SUMMARY FOR MISSOURI
NATIONAL WEATHER SERVICE SPRINGFIELD MO
1100 AM CST THU FEB 23 2017

NOTE: "FAIR" INDICATES FEW OR NO CLOUDS BELOW 12,000 FEET WITH NO
       SIGNIFICANT WEATHER AND/OR OBSTRUCTIONS TO VISIBILITY.
       CURRENT SKY AND/OR WEATHER CONDITIONS ARE NOT AVAILABLE FOR
       CHILLICOTHE AND FARMINGTON.

MOZ001>031-035>038-043-044-053-054-231800-
...NORTHERN AND WESTERN MISSOURI...

CITY           SKY/WX    TMP DP  RH WIND       PRES   REMARKS
KANSAS CTY INT CLOUDY    50  39  66 E13       29.66R
KANSAS C DTWN  CLOUDY    51  40  65 E14       29.64S
LEE`S SUMMIT   CLOUDY    51  42  71 E14       29.63F
ST JOSEPH      LGT RAIN  44  41  89 E12G20    29.64F
CHILLICOTHE      N/A     45  39  79 NE13      29.73F
KIRKSVILLE     CLOUDY    44  41  89 NE17      29.74F

$$
MOZ066>068-077>081-088>096-101>105-231800-
...SOUTHWEST MISSOURI...

CITY           SKY/WX    TMP DP  RH WIND       PRES   REMARKS
SPRINGFIELD    MOSUNNY   66  54  65 SE18      29.59F
JOPLIN         MOSUNNY   71  52  50 S12       29.55F
BRANSON        MOSUNNY   68  55  64 SE13      29.65F

$$
MOZ032>034-039>042-045>050-055>058-069>072-231800-
...CENTRAL MISSOURI...

CITY           SKY/WX    TMP DP  RH WIND       PRES   REMARKS
COLUMBIA       CLOUDY    56  52  86 NE7       29.70R
JEFFERSON CITY CLOUDY    52  52 100 E5        29.67F
ROLLA          CLOUDY    57  55  93 E10       29.66F
SEDALIA        PTSUNNY   59  50  72 E14       29.65F
WHITEMAN AFB   PTSUNNY   55  53  92 E12       29.63S
WARRENSBURG    CLOUDY    54  43  66 NE12G17   29.64F
OSAGE BEACH    MOSUNNY   63  55  75 E5        29.65F

$$
MOZ051-052-059>065-231800-
...EAST CENTRAL MISSOURI...

CITY           SKY/WX    TMP DP  RH WIND       PRES   REMARKS
ST LOUIS INTL  PTSUNNY   67  54  63 CALM      29.70F
SPIRIT OF STL  MOSUNNY   67  57  70 VRB5      29.69F
ST CHARLES     SUNNY     65  56  72 VRB3      29.70F

$$
MOZ072>076-082>087-097>100-106>115-231800-
...SOUTH CENTRAL AND SOUTHEAST MISSOURI...

CITY           SKY/WX    TMP DP  RH WIND       PRES   REMARKS
CAPE GIRARDEAU MOSUNNY   66  57  72 S15       29.76F
FARMINGTON     CLOUDY    58  54  86 S10       29.74F
POPLAR BLUFF   PTSUNNY   63  59  87 S14       29.75F
WEST PLAINS    CLOUDY    60  56  86 S12       29.71F

$$




USA.gov is the U.S. government's official web portal to all federal, state and local government web resources and services.